Location: Unspecified
(0.0000°N, 0.0000°E)
Time: 11:15:46
(UTC+00:00)

Altair - Pass Details

Date: 22 November 2019
Orbit: 1502 x 1682 km, 47.2° (Epoch: 14 December)

Event Time Altitude Azimuth Distance (km) Brightness Sun altitude
Rises 11:11:51 0° 315° (NW) 4,743 9.9 68.2°
Reaches altitude 10° 11:14:54 10° 313° (NW) 3,784 9.5 68.5°
Maximum altitude 11:24:30 71° 231° (SW) 1,710 9.4 69.2°
Drops below altitude 10° 11:34:31 10° 148° (SSE) 3,920 10.1 69.7°
Sets 11:37:44 0° 145° (SE) 4,922 10.4 69.8°
